DW7098 Weather Reports


Display with metric or nautical units.
time (UTC)temp
F
wind
direction
speed
MPH
gust
MPH
rain 1hr
in
rain 24hr
in
rain mn
in
humidity
%
barometer
mb
20260506200101 56 243 1.0 6.0 0.00 0.00 0.00
20260506193043 57 285 1.0 6.0 0.00 0.00 0.00
20260506183033 55 215 1.0 4.0 0.00 0.00 0.00
20260506180104 54 270 0.0 3.0 0.00 0.00 0.00
20260506173044 54 239 2.0 6.0 0.00 0.00 0.00
20260506170055 54 249 1.0 6.0 0.00 0.00 0.00
20260506163036 54 265 1.0 5.0 0.00 0.00 0.00
20260506160046 54 239 0.0 2.0 0.00 0.00 0.00
20260506150056 54 262 0.0 5.0 0.00 0.00 0.00
20260506143036 53 235 0.0 1.0 0.00 0.00 0.00
20260506140104 53 176 0.0 2.0 0.00 0.00 0.00
20260506133044 53 280 0.0 1.0 0.00 0.00 0.00
20260506130053 53 234 0.0 1.0 0.00 0.00 0.00
20260506123037 53 262 0.0 2.0 0.00 0.00 0.00
20260506120108 53 211 0.0 2.0 0.00 0.00 0.00
20260506113048 53 242 0.0 5.0 0.00 0.00 0.00
20260506103041 53 217 0.0 2.0 0.00 0.00 0.00
20260506100049 53 239 0.0 1.0 0.00 0.00 0.00
20260506093051 53 228 0.0 2.0 0.00 0.00 0.00
20260506083039 54 249 0.0 2.0 0.00 0.00 0.00
20260506050106 55 251 1.0 3.0 0.00 0.00 0.00
20260506043048 55 283 1.0 3.0 0.00 0.00 0.00
20260506040100 55 258 0.0 5.0 0.00 0.00 0.00
20260506033037 56 231 1.0 2.0 0.00 0.00 0.00
20260506030107 56 265 1.0 4.0 0.00 0.00 0.00
20260506023046 57 215 0.0 4.0 0.00 0.00 0.00
20260506020054 58 231 1.0 4.0 0.00 0.00 0.00
20260506013035 59 203 2.0 5.0 0.00 0.00 0.00
20260506010103 60 258 1.0 8.0 0.00 0.00 0.00
20260506003044 61 284 1.0 6.0 0.00 0.00 0.00
20260506000052 63 269 1.0 8.0 0.00 0.00 0.00
20260505233053 62 255 3.0 8.0 0.00 0.00 0.00
20260505223020 62 274 1.0 6.0 0.00 0.00 0.00
20260505220103 63 246 1.0 6.0 0.00 0.00 0.00
20260505210058 64 194 1.0 8.0 0.00 0.00 0.00
20260505203038 64 254 3.0 6.0 0.00 0.00 0.00